Atqasuk Edward Burnell Sr Mem, AK

9:30 AM AKST on December 12, 2017 (GMT -0900)
Atqasuk Edward Burnell Sr Mem

Weather History for PATQ - March, 2014

Change the Weather History Date:

Tuesday, March 11, 2014

  Actual Average (PABR) Record (PABR)
Temperature  
Mean Temperature -24 °F -  
Max Temperature -13 °F -6 °F 26 °F (1987)
Min Temperature -36 °F -19 °F -51 °F (1930)
Degree Days  
Heating Degree Days 90    
Moisture  
Dew Point -23 °F    
Average Humidity 75    
Maximum Humidity 84    
Minimum Humidity 69    
Precipitation  
Precipitation 0.00 in - - ()
Sea Level Pressure  
Sea Level Pressure 29.56 in    
Wind  
Wind Speed 10 mph (ENE)    
Max Wind Speed 16 mph    
Max Gust Speed -    
Visibility 4 miles    
Events Snow    
Averages and records for this station are not official NWS values.
T = Trace of Precipitation, MM = Missing Value Source: NWS Daily Summary

Daily Weather History Graph

Daily Weather History Graph

Search for Another Location

Airport or City:

Trip Planner

Search our weather history database for the weather conditions in past years. The results will help you decide how hot, cold, wet, or windy it might be!

Date:

Astronomy

Mar. 11, 2014 Rise Set
Actual Time 9:09 AM AKDT 8:11 PM AKDT
Civil Twilight 8:08 AM AKDT 9:13 PM AKDT
Nautical Twilight 6:53 AM AKDT 10:28 PM AKDT
Astronomical Twilight 5:25 AM AKDT 11:58 PM AKDT
Moon 1:43 PM AKDT (3/11) 8:30 AM AKDT (3/11)
Length of Visible Light 13h 05m
Length of Day
11h 01m
Waxing Gibbous, 79% of the Moon is Illuminated
Mar 11
Waxing Gibbous
Mar 16
Full
Mar 23
Last Quarter
Mar 30
New
Apr 7
First Quarter

Hourly Weather History & Observations

Time (AKDT) Temp. Windchill Dew Point Humidity Pressure Visibility Wind Dir Wind Speed Gust Speed Precip Events Conditions
12:56 AM -34.6 °F - - N/A% 29.75 in 10.0 mi North - - N/A   Clear
1:56 AM -35.0 °F -58.3 °F - N/A% 29.78 in 10.0 mi ENE 9.2 mph - N/A   Clear
2:56 AM -35.9 °F -59.4 °F - N/A% 29.77 in 5.0 mi ENE 9.2 mph - 0.00 in Snow Light Snow
3:14 AM -36.4 °F -60.1 °F - N/A% 29.74 in 3.0 mi ENE 9.2 mph - 0.00 in Snow Light Snow
3:56 AM -35.9 °F -59.4 °F - N/A% 29.76 in 6.0 mi NE 9.2 mph - 0.00 in   Haze
4:16 AM -36.4 °F -61.5 °F - N/A% 29.72 in 10.0 mi NE 10.4 mph - 0.00 in   Scattered Clouds
4:56 AM -35.9 °F -59.4 °F - N/A% 29.74 in 8.0 mi NE 9.2 mph - 0.00 in   Clear
5:56 AM -35.0 °F -53.1 °F - N/A% 29.71 in 7.0 mi NE 5.8 mph - N/A   Clear
6:56 AM -33.0 °F -55.9 °F - N/A% 29.69 in 10.0 mi NNE 9.2 mph - 0.00 in Snow Light Snow
7:56 AM -33.0 °F -55.9 °F - N/A% 29.68 in 10.0 mi NE 9.2 mph - 0.00 in Snow Light Snow
8:09 AM -32.8 °F -55.6 °F - N/A% 29.64 in 10.0 mi NE 9.2 mph - 0.00 in Snow Light Snow
8:56 AM -33.0 °F -57.2 °F - N/A% 29.65 in 10.0 mi NNE 10.4 mph - 0.00 in   Partly Cloudy
9:56 AM -31.0 °F -53.4 °F - N/A% 29.63 in 10.0 mi NE 9.2 mph - N/A   Clear
10:41 AM -29.2 °F -52.5 °F - N/A% 29.59 in 1.8 mi NE 10.4 mph - 0.00 in Snow Light Snow
10:47 AM -29.2 °F -52.5 °F - N/A% 29.59 in 3.0 mi NE 10.4 mph - 0.00 in Snow Light Snow
10:56 AM -29.9 °F -53.4 °F - N/A% 29.62 in 3.0 mi NE 10.4 mph - 0.00 in Snow Light Snow
11:56 AM -29.9 °F -53.4 °F - N/A% 29.61 in 10.0 mi NE 10.4 mph - 0.00 in   Clear
12:56 PM -26.9 °F -50.8 °F -33.9 °F 69% 29.60 in 5.0 mi NE 11.5 mph - 0.00 in   Haze
1:31 PM -23.8 °F -46.9 °F -31.0 °F 69% 29.55 in 2.5 mi NE 11.5 mph - 0.00 in Snow Light Snow
1:40 PM -23.8 °F -48.0 °F -29.2 °F 76% 29.55 in 3.0 mi NE 12.7 mph - 0.00 in   Haze
1:56 PM -22.9 °F -46.8 °F -29.9 °F 70% 29.58 in 3.0 mi NE 12.7 mph - 0.00 in   Haze
2:56 PM -19.8 °F -43.9 °F -26.9 °F 70% 29.57 in 3.0 mi NE 13.8 mph - N/A   Haze
3:00 PM -20.2 °F -44.4 °F -27.4 °F 69% 29.54 in 2.5 mi NE 13.8 mph - N/A   Haze
3:28 PM -20.2 °F -43.4 °F -25.6 °F 76% 29.54 in 3.0 mi ENE 12.7 mph - 0.00 in Snow Light Snow
3:56 PM -18.4 °F -43.7 °F -25.6 °F 70% 29.53 in 3.0 mi ENE 16.1 mph - N/A Snow Light Snow
4:01 PM -18.4 °F -42.1 °F -25.6 °F 70% 29.53 in 1.8 mi ENE 13.8 mph - 0.00 in Snow Light Snow
4:09 PM -18.4 °F -42.9 °F -25.6 °F 70% 29.52 in 1.0 mi NE 15.0 mph - 0.00 in Snow Light Snow
4:35 PM -18.4 °F -41.2 °F -23.8 °F 76% 29.52 in 0.8 mi ENE 12.7 mph - 0.00 in Snow Light Snow
4:56 PM -17.0 °F -37.3 °F -22.9 °F 74% 29.54 in 0.8 mi ENE 10.4 mph - 0.00 in Snow Light Snow
5:02 PM -16.6 °F -38.9 °F -23.8 °F 70% 29.51 in 1.2 mi East 12.7 mph - 0.00 in Snow Light Snow
5:08 PM -16.6 °F -39.8 °F -23.8 °F 70% 29.51 in 2.0 mi East 13.8 mph - 0.00 in Snow Light Snow
5:21 PM -16.6 °F -38.9 °F -23.8 °F 70% 29.51 in 3.0 mi East 12.7 mph - 0.00 in Snow Light Snow
5:56 PM -17.0 °F -34.8 °F -22.9 °F 74% 29.53 in 2.0 mi East 8.1 mph - 0.00 in Snow Light Snow
6:06 PM -16.6 °F -32.9 °F -23.8 °F 70% 29.50 in 1.5 mi East 6.9 mph - 0.00 in Snow Light Snow
6:19 PM -16.6 °F -31.3 °F -23.8 °F 70% 29.50 in 1.2 mi East 5.8 mph - 0.00 in Snow Light Snow
6:33 PM -16.6 °F -26.8 °F -23.8 °F 70% 29.50 in 1.8 mi East 3.5 mph - 0.00 in Snow Light Snow
6:56 PM -16.6 °F - -23.8 °F 70% 29.50 in 1.8 mi Calm Calm - N/A Snow Light Snow
7:08 PM -16.6 °F - -23.8 °F 70% 29.50 in 2.5 mi Calm Calm - 0.00 in Snow Light Snow
7:32 PM -16.6 °F - -22.0 °F 76% 29.49 in 6.0 mi Calm Calm - 0.00 in Snow Light Snow
7:56 PM -15.9 °F -26.0 °F -22.0 °F 74% 29.51 in 10.0 mi NE 3.5 mph - 0.00 in Snow Light Snow
8:47 PM -14.8 °F -36.6 °F -20.2 °F 77% 29.48 in 2.5 mi ENE 12.7 mph - 0.00 in Snow Light Snow
8:56 PM -13.9 °F -36.3 °F -19.8 °F 75% 29.50 in 1.0 mi ENE 13.8 mph - 0.00 in Snow Light Snow
9:12 PM -14.8 °F -35.6 °F -20.2 °F 77% 29.48 in 1.5 mi ENE 11.5 mph - 0.00 in Snow Light Snow
9:25 PM -14.8 °F -36.6 °F -20.2 °F 77% 29.48 in 2.5 mi ENE 12.7 mph - 0.00 in Snow Light Snow
9:29 PM -14.8 °F -35.6 °F -20.2 °F 77% 29.48 in 3.0 mi ENE 11.5 mph - 0.00 in Snow Light Snow
9:56 PM -14.8 °F -36.6 °F -18.4 °F 84% 29.47 in 4.0 mi ENE 12.7 mph - N/A Snow Light Snow
10:18 PM -14.8 °F -36.6 °F -18.4 °F 84% 29.47 in 2.0 mi ENE 12.7 mph - 0.00 in Snow Light Snow
10:25 PM -14.8 °F -37.5 °F -18.4 °F 84% 29.47 in 2.0 mi ENE 13.8 mph - 0.00 in Snow Light Snow
10:29 PM -14.8 °F -36.6 °F -18.4 °F 84% 29.47 in 1.8 mi ENE 12.7 mph - 0.00 in Snow Light Snow
10:38 PM -14.8 °F -36.6 °F -18.4 °F 84% 29.47 in 2.0 mi ENE 12.7 mph - 0.00 in Snow Light Snow
10:56 PM -13.9 °F -34.5 °F -18.9 °F 78% 29.50 in 1.5 mi ENE 11.5 mph - 0.00 in Snow Light Snow
11:06 PM -14.8 °F -36.6 °F -18.4 °F 84% 29.47 in 3.0 mi ENE 12.7 mph - 0.00 in Snow Light Snow
11:14 PM -13.0 °F -34.3 °F -18.4 °F 77% 29.47 in 7.0 mi ENE 12.7 mph - 0.00 in Snow Light Snow
11:56 PM -13.0 °F -34.3 °F -18.9 °F 75% 29.49 in 3.0 mi ENE 12.7 mph - 0.00 in Snow Light Snow